Location: Albuquerque Trailhead
(34.7934°N, 106.3736°W)
Time: 02:16:51
(UTC+00:00)

ADEOS Rocket - Pass Details

Date: 20 June 2021
Orbit: 858 x 1307 km, 98.7° (Epoch: 27 July)

Event Time Altitude Azimuth Distance (km) Brightness Sun altitude
Exits shadow 09:40:17 23° 175° (S) 2,371 4.6 -21.4°
Maximum altitude 09:45:18 75° 257° (WSW) 1,227 3.3 -20.7°
Drops below altitude 10° 09:52:08 10° 343° (NNW) 2,968 5.9 -19.8°
Sets 09:54:35 0° 345° (NNW) 3,867 6.6 -19.5°
